TimeCST,TemperatureF,Dew PointF,Humidity,Sea Level PressureIn,VisibilityMPH,Wind Direction,Wind SpeedMPH,Gust SpeedMPH,PrecipitationIn,Events,Conditions,WindDirDegrees,DateUTC
12:05 AM,10.9,7.0,84,30.26,1.5,South,11.5,-,0.00,Snow,Light Snow,180,2013-12-25 06:05:00
12:11 AM,10.9,7.0,84,30.26,0.8,South,10.4,-,0.00,Snow,Light Snow,180,2013-12-25 06:11:00
12:35 AM,12.0,7.0,80,30.24,1.5,South,11.5,-,0.01,Snow,Light Snow,180,2013-12-25 06:35:00
12:41 AM,12.0,8.1,84,30.24,1.8,South,11.5,-,0.01,Snow,Light Snow,180,2013-12-25 06:41:00
12:51 AM,12.2,8.6,85,30.23,2.0,South,11.5,-,0.01,Snow,Light Snow,180,2013-12-25 06:51:00
12:53 AM,12.9,8.1,81,30.29,2.0,South,10.4,-,0.01,Snow,Light Snow,180,2013-12-25 06:53:00
1:08 AM,12.9,8.1,81,30.22,6.0,South,11.5,-,0.00,Snow,Light Snow,180,2013-12-25 07:08:00
1:45 AM,14.0,8.1,77,30.21,8.0,South,13.8,-,0.00,Snow,Light Snow,190,2013-12-25 07:45:00
1:53 AM,14.0,8.1,77,30.27,1.5,South,13.8,-,0.00,Snow,Light Snow,180,2013-12-25 07:53:00
2:45 AM,14.0,9.0,80,30.19,0.8,South,13.8,-,0.00,Snow,Light Snow,190,2013-12-25 08:45:00
2:53 AM,14.0,10.0,84,30.25,0.8,South,13.8,-,0.00,,Mist,190,2013-12-25 08:53:00
2:57 AM,14.0,10.0,84,30.18,1.0,South,12.7,-,N/A,,Mist,190,2013-12-25 08:57:00
3:07 AM,14.0,10.0,84,30.18,2.0,South,12.7,-,N/A,,Overcast,190,2013-12-25 09:07:00
3:29 AM,14.0,10.0,84,30.17,1.5,SSW,12.7,-,N/A,,Overcast,200,2013-12-25 09:29:00
3:40 AM,15.1,10.0,80,30.17,2.0,SSW,11.5,-,N/A,,Haze,200,2013-12-25 09:40:00
3:53 AM,15.1,10.0,80,30.22,2.0,SSW,12.7,-,N/A,,Haze,200,2013-12-25 09:53:00
3:59 AM,15.1,10.0,80,30.17,1.5,SSW,11.5,-,N/A,,Haze,200,2013-12-25 09:59:00
4:10 AM,15.1,10.0,80,30.16,2.0,South,11.5,-,N/A,,Haze,190,2013-12-25 10:10:00
4:21 AM,15.1,10.0,80,30.16,4.0,SSW,10.4,-,N/A,,Haze,200,2013-12-25 10:21:00
4:36 AM,15.1,10.0,80,30.16,7.0,SSW,10.4,-,N/A,,Overcast,200,2013-12-25 10:36:00
4:53 AM,15.1,10.0,80,30.21,8.0,SSW,11.5,-,N/A,,Mostly Cloudy,200,2013-12-25 10:53:00
5:41 AM,16.0,10.9,81,30.14,5.0,SSW,10.4,-,0.00,Snow,Light Snow,200,2013-12-25 11:41:00
5:53 AM,16.0,10.9,81,30.20,6.0,SSW,10.4,-,0.00,Snow,Light Snow,200,2013-12-25 11:53:00
6:53 AM,16.0,12.0,84,30.19,7.0,SSW,10.4,-,0.00,Snow,Light Snow,210,2013-12-25 12:53:00
7:53 AM,17.1,12.0,81,30.20,9.0,SW,8.1,-,0.00,Snow,Light Snow,220,2013-12-25 13:53:00
8:36 AM,17.1,12.0,81,30.14,3.0,SW,8.1,-,0.00,Snow,Light Snow,220,2013-12-25 14:36:00
8:45 AM,17.1,12.0,81,30.14,2.5,SSW,8.1,-,0.00,Snow,Light Snow,210,2013-12-25 14:45:00
8:53 AM,17.1,12.0,81,30.19,2.5,SW,8.1,-,0.00,Snow,Light Snow,220,2013-12-25 14:53:00
8:59 AM,17.1,12.0,81,30.14,3.0,SW,8.1,-,0.00,Snow,Light Snow,220,2013-12-25 14:59:00
9:08 AM,17.1,12.9,84,30.14,2.5,SW,6.9,-,0.00,Snow,Light Snow,220,2013-12-25 15:08:00
9:19 AM,17.1,12.0,81,30.14,4.0,SW,8.1,-,0.00,Snow,Light Snow,230,2013-12-25 15:19:00
9:53 AM,18.0,12.0,78,30.20,7.0,WSW,10.4,-,0.00,Snow,Light Snow,240,2013-12-25 15:53:00
10:03 AM,18.0,12.0,78,30.14,8.0,WSW,11.5,-,0.00,Snow,Light Snow,250,2013-12-25 16:03:00
10:53 AM,18.0,10.9,74,30.18,6.0,WSW,10.4,-,0.00,Snow,Light Snow,240,2013-12-25 16:53:00
11:03 AM,18.0,10.9,74,30.13,7.0,WSW,9.2,-,0.00,Snow,Light Snow,240,2013-12-25 17:03:00
11:53 AM,18.0,10.9,74,30.17,8.0,WSW,8.1,-,0.00,Snow,Light Snow,250,2013-12-25 17:53:00
12:10 PM,18.0,12.0,78,30.11,1.8,WSW,9.2,-,0.00,Snow,Light Snow,240,2013-12-25 18:10:00
12:23 PM,19.0,12.9,77,30.10,2.5,SW,6.9,-,0.00,Snow,Light Snow,220,2013-12-25 18:23:00
12:33 PM,18.0,12.0,78,30.10,5.0,SW,6.9,-,0.00,Snow,Light Snow,230,2013-12-25 18:33:00
12:53 PM,18.0,12.0,78,30.14,7.0,SW,6.9,-,0.00,Snow,Light Snow,230,2013-12-25 18:53:00
1:15 PM,19.0,12.9,77,30.08,6.0,SW,8.1,-,0.00,Snow,Light Snow,220,2013-12-25 19:15:00
1:53 PM,19.0,12.9,77,30.12,6.0,SW,6.9,-,0.00,Snow,Light Snow,220,2013-12-25 19:53:00
2:53 PM,19.9,12.9,74,30.12,7.0,WSW,9.2,-,0.00,,Overcast,240,2013-12-25 20:53:00
3:06 PM,19.9,12.9,74,30.08,7.0,SW,9.2,-,0.00,,Overcast,230,2013-12-25 21:06:00
3:30 PM,19.9,14.0,78,30.08,1.8,SW,5.8,-,0.00,Snow,Light Snow,220,2013-12-25 21:30:00
3:37 PM,19.9,14.0,78,30.08,1.2,SW,6.9,-,0.00,Snow,Light Snow,220,2013-12-25 21:37:00
3:53 PM,19.9,15.1,81,30.12,2.0,SW,8.1,-,0.00,Snow,Light Snow,220,2013-12-25 21:53:00
4:05 PM,19.9,15.1,81,30.08,1.8,SW,6.9,-,0.00,Snow,Light Snow,220,2013-12-25 22:05:00
4:12 PM,19.9,15.1,81,30.08,1.2,SW,6.9,-,0.00,Snow,Light Snow,220,2013-12-25 22:12:00
4:20 PM,19.9,15.1,81,30.07,1.2,SSW,4.6,-,0.00,Snow,Light Snow,210,2013-12-25 22:20:00
4:27 PM,19.9,15.1,81,30.07,2.0,SSW,4.6,-,0.00,Snow,Light Snow,200,2013-12-25 22:27:00
4:38 PM,19.9,15.1,81,30.07,5.0,SSW,4.6,-,0.00,Snow,Light Snow,200,2013-12-25 22:38:00
4:53 PM,19.9,15.1,81,30.12,4.0,SSW,5.8,-,0.00,Snow,Light Snow,210,2013-12-25 22:53:00
5:04 PM,19.9,16.0,85,30.06,5.0,SSW,5.8,-,0.00,Snow,Light Snow,210,2013-12-25 23:04:00
5:53 PM,19.9,16.0,85,30.11,5.0,SW,4.6,-,0.00,Snow,Light Snow,220,2013-12-25 23:53:00
6:53 PM,21.0,16.0,81,30.10,5.0,SW,4.6,-,0.00,Snow,Light Snow,220,2013-12-26 00:53:00
7:53 PM,21.0,17.1,85,30.09,7.0,SSW,6.9,-,0.00,,Overcast,210,2013-12-26 01:53:00
8:10 PM,21.0,17.1,85,30.04,7.0,SSW,6.9,-,N/A,,Overcast,210,2013-12-26 02:10:00
8:53 PM,21.0,17.1,85,30.08,6.0,SW,8.1,-,0.00,,Overcast,220,2013-12-26 02:53:00
9:42 PM,21.0,17.1,85,30.02,7.0,WSW,4.6,-,N/A,,Overcast,240,2013-12-26 03:42:00
9:50 PM,21.2,17.6,86,30.03,7.0,WSW,5.8,-,N/A,,Overcast,240,2013-12-26 03:50:00
9:53 PM,21.0,17.1,85,30.07,7.0,WSW,5.8,-,N/A,,Overcast,240,2013-12-26 03:53:00
10:05 PM,21.9,17.1,82,30.02,6.0,WSW,5.8,-,0.00,Snow,Light Snow,250,2013-12-26 04:05:00
10:53 PM,21.9,17.1,82,30.07,7.0,West,10.4,-,0.00,,Overcast,280,2013-12-26 04:53:00
11:23 PM,21.9,16.0,78,30.04,9.0,WNW,13.8,-,N/A,,Overcast,290,2013-12-26 05:23:00
11:53 PM,21.0,14.0,74,30.08,10.0,WNW,12.7,-,N/A,,Overcast,300,2013-12-26 05:53:00